When you browse on this site, cookies collect data to enhance your experience and personalize the content and advertising you see.
Visit our Privacy Policy to learn more. By continuing to use the site, you agree to this use of cookies and data.
  • în România
  • Lista ţărilor
  • Pe 7 zile
  • Temperatura apei
  • Meteo pe hartă
  • Widget-uri
  • user-avatar
    Intrare

    Meteo pe oră la Napoli

    Astăzi, 11 Noiembrie, Luni

    Timp Temperatura Precipitaţii Vânt Presiune Umiditate
    00:00 +14°C° 0.7 mm 4 m/s 756 mmHg 72%
    01:00 +14°C° 0 mm 4 m/s 756 mmHg 73%
    02:00 +14°C° 0.5 mm 4 m/s 756 mmHg 72%
    03:00 +14°C° 0.5 mm 4 m/s 756 mmHg 70%
    04:00 +14°C° 0.5 mm 4 m/s 756 mmHg 68%
    05:00 +14°C° 0.1 mm 4 m/s 756 mmHg 67%
    06:00 +14°C° 0.1 mm 4 m/s 756 mmHg 66%
    07:00 +14°C° 0 mm 4 m/s 756 mmHg 65%
    08:00 +15°C° 0.1 mm 4 m/s 756 mmHg 60%
    09:00 +17°C° 0.1 mm 4 m/s 756 mmHg 56%
    10:00 +18°C° 0.1 mm 4 m/s 756 mmHg 52%
    11:00 +19°C° 0.1 mm 4 m/s 756 mmHg 51%
    12:00 +20°C° 0.1 mm 4 m/s 755 mmHg 50%
    13:00 +20°C° 0 mm 4 m/s 755 mmHg 48%
    14:00 +20°C° 0.1 mm 4 m/s 754 mmHg 49%
    15:00 +20°C° 0.1 mm 4 m/s 754 mmHg 50%
    16:00 +20°C° 0.1 mm 3 m/s 753 mmHg 51%
    17:00 +19°C° 0.3 mm 3 m/s 753 mmHg 53%
    18:00 +19°C° 0.3 mm 2 m/s 753 mmHg 55%
    19:00 +18°C° 0.3 mm 2 m/s 753 mmHg 57%
    20:00 +18°C° 0.2 mm 2 m/s 752 mmHg 58%
    21:00 +18°C° 0.2 mm 2 m/s 752 mmHg 59%
    22:00 +17°C° 0.2 mm 2 m/s 751 mmHg 59%
    23:00 +17°C° 0 mm 3 m/s 751 mmHg 61%

    Mâine, 12 Noiembrie, Marţi

    Timp Temperatura Precipitaţii Vânt Presiune Umiditate
    00:00 +17°C° 0 mm 4 m/s 750 mmHg 62%
    01:00 +16°C° 0 mm 5 m/s 749 mmHg 64%
    02:00 +15°C° 1.3 mm 5 m/s 748 mmHg 70%
    03:00 +15°C° 1.3 mm 6 m/s 747 mmHg 77%
    04:00 +15°C° 1.3 mm 6 m/s 746 mmHg 84%
    05:00 +15°C° 2.2 mm 6 m/s 745 mmHg 83%
    06:00 +15°C° 2.2 mm 6 m/s 744 mmHg 83%
    07:00 +14°C° 2.2 mm 5 m/s 743 mmHg 82%
    08:00 +15°C° 3.6 mm 6 m/s 743 mmHg 82%
    09:00 +15°C° 3.6 mm 6 m/s 743 mmHg 81%
    10:00 +15°C° 3.6 mm 6 m/s 743 mmHg 81%
    11:00 +16°C° 0.8 mm 8 m/s 743 mmHg 75%
    12:00 +16°C° 0.8 mm 10 m/s 743 mmHg 70%
    13:00 +17°C° 0.8 mm 12 m/s 742 mmHg 64%
    14:00 +17°C° 0.2 mm 12 m/s 743 mmHg 62%
    15:00 +17°C° 0.2 mm 11 m/s 743 mmHg 59%
    16:00 +17°C° 0.2 mm 11 m/s 743 mmHg 57%
    17:00 +17°C° 0.2 mm 12 m/s 743 mmHg 59%
    18:00 +15°C° 0.2 mm 12 m/s 743 mmHg 62%
    19:00 +15°C° 0.2 mm 12 m/s 743 mmHg 64%
    20:00 +15°C° 0.7 mm 12 m/s 743 mmHg 66%
    21:00 +14°C° 0.7 mm 12 m/s 742 mmHg 68%
    22:00 +14°C° 0.7 mm 12 m/s 742 mmHg 70%
    23:00 +14°C° 1.7 mm 11 m/s 741 mmHg 72%

    Poimâine, 13 Noiembrie, Miercuri

    Timp Temperatura Precipitaţii Vânt Presiune Umiditate
    00:00 +13°C° 1.7 mm 10 m/s 740 mmHg 74%
    01:00 +13°C° 1.7 mm 9 m/s 740 mmHg 76%
    02:00 +13°C° 4.5 mm 8 m/s 739 mmHg 78%
    03:00 +13°C° 4.5 mm 8 m/s 739 mmHg 81%
    04:00 +14°C° 4.5 mm 7 m/s 739 mmHg 83%
    05:00 +14°C° 1.2 mm 7 m/s 739 mmHg 83%
    06:00 +14°C° 1.2 mm 6 m/s 740 mmHg 83%
    07:00 +14°C° 1.2 mm 6 m/s 741 mmHg 83%
    08:00 +15°C° 0.2 mm 6 m/s 742 mmHg 79%
    09:00 +16°C° 0.2 mm 5 m/s 743 mmHg 74%
    10:00 +16°C° 0.2 mm 5 m/s 744 mmHg 70%
    11:00 +18°C° 0.6 mm 4 m/s 745 mmHg 69%
    12:00 +18°C° 0.6 mm 4 m/s 746 mmHg 68%
    13:00 +19°C° 0.6 mm 4 m/s 747 mmHg 68%
    14:00 +17°C° 0.6 mm 5 m/s 747 mmHg 70%
    15:00 +17°C° 0.6 mm 6 m/s 748 mmHg 72%
    16:00 +17°C° 0.6 mm 7 m/s 748 mmHg 75%
    17:00 +16°C° 0.2 mm 7 m/s 749 mmHg 73%
    18:00 +16°C° 0.2 mm 7 m/s 749 mmHg 71%
    19:00 +16°C° 0.2 mm 7 m/s 750 mmHg 69%
    20:00 +16°C° 0.1 mm 5 m/s 750 mmHg 69%
    21:00 +15°C° 0.1 mm 4 m/s 751 mmHg 68%
    22:00 +16°C° 0.1 mm 3 m/s 751 mmHg 67%
    23:00 +15°C° 0.3 mm 4 m/s 751 mmHg 68%

    14 Noiembrie, Joi

    Timp Temperatura Precipitaţii Vânt Presiune Umiditate
    00:00 +15°C° 0.3 mm 5 m/s 751 mmHg 70%
    01:00 +15°C° 0.3 mm 6 m/s 750 mmHg 71%
    02:00 +15°C° 1.3 mm 6 m/s 750 mmHg 73%
    03:00 +15°C° 1.3 mm 7 m/s 750 mmHg 75%
    04:00 +15°C° 1.3 mm 7 m/s 749 mmHg 77%
    05:00 +15°C° 1.2 mm 8 m/s 749 mmHg 78%
    06:00 +15°C° 1.2 mm 8 m/s 750 mmHg 80%
    07:00 +15°C° 1.2 mm 9 m/s 750 mmHg 81%
    08:00 +15°C° 4 mm 8 m/s 750 mmHg 82%
    09:00 +15°C° 4 mm 7 m/s 750 mmHg 83%
    10:00 +15°C° 4 mm 6 m/s 751 mmHg 84%
    11:00 +15°C° 2.7 mm 5 m/s 751 mmHg 82%
    12:00 +15°C° 2.7 mm 4 m/s 751 mmHg 81%
    13:00 +17°C° 2.7 mm 2 m/s 751 mmHg 80%
    14:00 +17°C° 0.3 mm 3 m/s 751 mmHg 77%
    15:00 +17°C° 0.3 mm 3 m/s 751 mmHg 75%
    16:00 +17°C° 0.3 mm 3 m/s 751 mmHg 72%
    17:00 +16°C° 0 mm 3 m/s 752 mmHg 71%
    18:00 +16°C° 0 mm 3 m/s 752 mmHg 71%
    19:00 +15°C° 0 mm 2 m/s 753 mmHg 70%
    20:00 +14°C° 0 mm 3 m/s 753 mmHg 69%
    21:00 +14°C° 0 mm 3 m/s 754 mmHg 69%
    22:00 +14°C° 0 mm 3 m/s 754 mmHg 68%
    23:00 +14°C° 0 mm 3 m/s 754 mmHg 68%

    15 Noiembrie, Vineri

    Timp Temperatura Precipitaţii Vânt Presiune Umiditate
    00:00 +14°C° 0 mm 4 m/s 754 mmHg 68%
    01:00 +14°C° 0 mm 4 m/s 755 mmHg 68%
    02:00 +14°C° 0 mm 4 m/s 754 mmHg 69%
    03:00 +14°C° 0 mm 4 m/s 754 mmHg 70%
    04:00 +14°C° 0 mm 4 m/s 754 mmHg 71%
    05:00 +14°C° 0 mm 4 m/s 754 mmHg 72%
    06:00 +14°C° 0 mm 4 m/s 754 mmHg 73%
    07:00 +14°C° 0 mm 4 m/s 754 mmHg 74%
    08:00 +15°C° 0.1 mm 5 m/s 755 mmHg 71%
    09:00 +16°C° 0.1 mm 6 m/s 755 mmHg 68%
    10:00 +17°C° 0.1 mm 6 m/s 755 mmHg 65%
    11:00 +17°C° 0.1 mm 7 m/s 754 mmHg 64%
    12:00 +17°C° 0.1 mm 7 m/s 754 mmHg 64%
    13:00 +18°C° 0.1 mm 7 m/s 754 mmHg 63%
    14:00 +18°C° 0 mm 7 m/s 754 mmHg 63%
    15:00 +18°C° 0 mm 7 m/s 753 mmHg 63%
    16:00 +18°C° 0 mm 7 m/s 753 mmHg 63%
    17:00 +17°C° 0 mm 7 m/s 753 mmHg 65%
    18:00 +17°C° 0 mm 7 m/s 754 mmHg 68%
    19:00 +16°C° 0 mm 7 m/s 754 mmHg 70%
    20:00 +16°C° 0.2 mm 7 m/s 754 mmHg 72%
    21:00 +16°C° 0.2 mm 7 m/s 754 mmHg 74%
    22:00 +16°C° 0.2 mm 6 m/s 755 mmHg 76%
    23:00 +16°C° 0.6 mm 6 m/s 755 mmHg 77%

    16 Noiembrie, Sâmbătă

    Timp Temperatura Precipitaţii Vânt Presiune Umiditate
    00:00 +16°C° 0.6 mm 6 m/s 755 mmHg 79%
    01:00 +16°C° 0.6 mm 6 m/s 755 mmHg 80%
    02:00 +16°C° 0.7 mm 5 m/s 755 mmHg 81%
    03:00 +17°C° 0.7 mm 4 m/s 756 mmHg 82%
    04:00 +17°C° 0.7 mm 3 m/s 756 mmHg 82%
    05:00 +15°C° 0.5 mm 4 m/s 756 mmHg 82%
    06:00 +15°C° 0.5 mm 4 m/s 756 mmHg 81%
    07:00 +15°C° 0.5 mm 4 m/s 756 mmHg 81%
    08:00 +17°C° 0.1 mm 4 m/s 756 mmHg 74%
    09:00 +18°C° 0.1 mm 4 m/s 756 mmHg 67%
    10:00 +20°C° 0.1 mm 4 m/s 756 mmHg 61%
    11:00 +21°C° 0 mm 5 m/s 755 mmHg 56%
    12:00 +21°C° 0 mm 6 m/s 755 mmHg 52%
    13:00 +22°C° 0 mm 7 m/s 754 mmHg 47%
    14:00 +22°C° 0 mm 7 m/s 754 mmHg 51%
    15:00 +21°C° 0 mm 8 m/s 753 mmHg 55%
    16:00 +21°C° 0 mm 8 m/s 753 mmHg 58%
    17:00 +20°C° 0 mm 8 m/s 753 mmHg 60%
    18:00 +20°C° 0 mm 8 m/s 753 mmHg 62%
    19:00 +18°C° 0 mm 7 m/s 753 mmHg 64%
    20:00 +18°C° 0 mm 8 m/s 753 mmHg 65%
    21:00 +17°C° 0 mm 8 m/s 753 mmHg 65%
    22:00 +17°C° 0 mm 9 m/s 753 mmHg 66%
    23:00 +17°C° 0.1 mm 9 m/s 752 mmHg 66%
    Arată mai mult